Weather History for KBDL - October, 2013

Change the Weather History Date:

Saturday, October 26, 2013

  Actual Average Record
Temperature  
Mean Temperature 42 °F 49 °F  
Max Temperature 55 °F 59 °F 81 °F (1963)
Min Temperature 29 °F 38 °F 23 °F (1952)
Degree Days  
Heating Degree Days 23 16  
Month to date heating degree days 249 321  
Since 1 July heating degree days 382 443  
Cooling Degree Days 0 0  
Month to date cooling degree days 5 5  
Year to date cooling degree days 894 754  
Moisture  
Dew Point 28 °F    
Average Humidity 65    
Maximum Humidity 100    
Minimum Humidity 29    
Precipitation  
Precipitation 0.00 in 0.13 in 3.03 in (1913)
Month to date precipitation 2.08 3.74  
Year to date precipitation 43.66 37.89  
Snow  
Snow 0.00 in 0.00 in T in (1962)
Month to date snowfall 0.0 0.0  
Since 1 July snowfall 0.0 0.0  
Since 1 September snowfall 0.0 0.0  
Snow Depth 0.00 in    
Sea Level Pressure  
Sea Level Pressure 30.04 in    
Wind  
Wind Speed 10 mph (SSW)    
Max Wind Speed 23 mph    
Max Gust Speed 31 mph    
Visibility 10 miles    
Events Rain    
T = Trace of Precipitation, MM = Missing Value Source: NWS Daily Summary

Daily Weather History Graph

Daily Weather History Graph

Search for Another Location

Airport or City:

Trip Planner

Search our weather history database for the weather conditions in past years. The results will help you decide how hot, cold, wet, or windy it might be!

Date:

Astronomy

Oct. 26, 2013 Rise Set
Actual Time 7:16 AM EDT 5:52 PM EDT
Civil Twilight 6:47 AM EDT 6:21 PM EDT
Nautical Twilight 6:14 AM EDT 6:53 PM EDT
Astronomical Twilight 5:42 AM EDT 7:26 PM EDT
Moon No Moon Rise 1:31 PM EDT (10/26)
Length of Visible Light 11h 33m
Length of Day
10h 36m
Waning Gibbous, 53% of the Moon is Illuminated
Oct 26
Waning Gibbous
Oct 26
Last Quarter
Nov 3
New
Nov 10
First Quarter
Nov 17
Full

Hourly Weather History & Observations

Time (EDT) Temp. Windchill Dew Point Humidity Pressure Visibility Wind Dir Wind Speed Gust Speed Precip Events Conditions
12:51 AM 34.0 °F 31.0 °F 28.9 °F 82% 30.18 in 10.0 mi South 3.5 mph - N/A   Clear
1:51 AM 33.1 °F - 28.9 °F 85% 30.17 in 10.0 mi Calm Calm - N/A   Scattered Clouds
2:51 AM 30.9 °F 24.3 °F 28.0 °F 89% 30.17 in 10.0 mi SSE 6.9 mph - N/A   Clear
3:51 AM 30.9 °F 26.2 °F 28.9 °F 92% 30.15 in 10.0 mi South 4.6 mph - N/A   Clear
4:51 AM 30.0 °F 25.2 °F 28.0 °F 92% 30.15 in 10.0 mi South 4.6 mph - N/A   Clear
5:51 AM 30.9 °F 25.2 °F 28.0 °F 89% 30.15 in 10.0 mi South 5.8 mph - N/A   Clear
6:51 AM 30.0 °F 25.2 °F 28.0 °F 92% 30.15 in 10.0 mi SSE 4.6 mph - N/A   Partly Cloudy
7:51 AM 30.9 °F 25.2 °F 30.0 °F 96% 30.15 in 10.0 mi South 5.8 mph - N/A   Scattered Clouds
8:51 AM 37.9 °F 34.4 °F 33.1 °F 83% 30.15 in 10.0 mi South 4.6 mph - N/A   Mostly Cloudy
9:51 AM 44.1 °F 39.0 °F 33.1 °F 65% 30.14 in 10.0 mi SW 9.2 mph - N/A   Mostly Cloudy
10:51 AM 48.9 °F - 30.0 °F 48% 30.10 in 10.0 mi SW 10.4 mph - N/A   Mostly Cloudy
11:51 AM 52.0 °F - 25.0 °F 35% 30.07 in 10.0 mi SSW 16.1 mph 25.3 mph N/A   Mostly Cloudy
12:51 PM 53.1 °F - 24.1 °F 32% 30.04 in 10.0 mi SW 23.0 mph 29.9 mph N/A   Mostly Cloudy
1:51 PM 54.0 °F - 23.0 °F 30% 30.00 in 10.0 mi SSW 20.7 mph 27.6 mph N/A   Mostly Cloudy
2:51 PM 54.0 °F - 23.0 °F 30% 29.97 in 10.0 mi SW 17.3 mph 24.2 mph N/A   Mostly Cloudy
3:51 PM 54.0 °F - 23.0 °F 30% 29.95 in 10.0 mi SW 16.1 mph 24.2 mph N/A   Scattered Clouds
4:51 PM 53.1 °F - 26.1 °F 35% 29.94 in 10.0 mi SSW 17.3 mph 24.2 mph N/A   Scattered Clouds
5:51 PM 51.1 °F - 27.0 °F 39% 29.91 in 10.0 mi SSW 15.0 mph 21.9 mph N/A   Scattered Clouds
6:51 PM 48.9 °F - 27.0 °F 43% 29.91 in 10.0 mi South 10.4 mph - N/A   Scattered Clouds
7:51 PM 48.9 °F - 28.0 °F 44% 29.92 in 10.0 mi SSW 8.1 mph - N/A   Mostly Cloudy
8:51 PM 48.9 °F - 28.0 °F 44% 29.91 in 10.0 mi SSW 9.2 mph - N/A   Overcast
9:51 PM 48.9 °F - 28.9 °F 46% 29.90 in 10.0 mi South 9.2 mph - N/A   Overcast
10:51 PM 48.9 °F - 30.0 °F 48% 29.89 in 10.0 mi South 8.1 mph - 0.00 in Rain Light Rain
11:51 PM 50.0 °F - 30.0 °F 46% 29.87 in 10.0 mi SSW 10.4 mph - 0.00 in   Overcast